This demonstration page uses our WeatherBlox Daily Observations layout. Learn more.

Left ArrowRight Arrow

Hourly Observations for December 23, 2015

Temp ( °F °C ) Dew Point ( °F °C ) Humidity (%) Winds ( mph kmh ) Pressure ( in mb ) Visibility ( mi km ) Precip ( " mm )
12:43 am 00:43 Cloudy with Light Rain 39 4 37 3 93 93 E 8 13 29.38 995 10 16 0.00 0.00
12:58 am 00:58 Cloudy with Light Rain 40 4.3 37 3 91 91 E 3 6 29.37 995 10 16 0.00 0.03
1:00 am 01:00 Cloudy 41 5 37 3 87 87 E 2 4 29.38 995 10 16 0.00 0.00
1:40 am 01:40 Cloudy with Light Rain 41 5 37 3 87 87 E 6 9 29.35 994 10 16 0.00 0.00
1:58 am 01:58 Cloudy with Light Rain 40 4.3 38 3.6 95 95 ENE 3 6 29.35 994 10 16 0.00 0.03
2:58 am 02:58 Cloudy with Light Rain 40 4.6 40 4.5 99 99 ENE 6 9 29.33 993 7 11 0.03 0.76
3:58 am 03:58 Cloudy with Light Rain 41 4.8 40 4.7 99 99 ENE 3 6 29.31 993 7 11 0.06 1.52
4:22 am 04:22 Cloudy with Light Rain 41 5 41 5 100 100 E 2 4 29.32 993 7 11 0.00 0.00
4:58 am 04:58 Cloudy with Light Rain 41 5.2 41 5.1 99 99 ENE 1 2 29.28 992 7 11 0.03 0.76
5:02 am 05:02 Cloudy with Light Rain 41 5 41 5 100 100 NE 1 2 29.29 992 7 11 0.00 0.00
5:43 am 05:43 Cloudy with Light Rain 43 6 41 5 93 93 N 5 7 29.29 992 7 11 0.00 0.00
5:58 am 05:58 Cloudy with Light Rain 42 5.5 42 5.4 99 99 NNE 3 6 29.28 992 6 10 0.04 1.02
6:32 am 06:32 Cloudy with Light Rain 41 5 41 5 100 100 N 8 13 29.29 992 6 10 0.00 0.00
6:40 am 06:40 Cloudy with Rain 41 5 41 5 100 100 N 8 13 29.29 992 5 8 0.00 0.00
6:57 am 06:57 Cloudy with Light Rain 41 5 41 5 100 100 N 7 11 29.26 991 5 8 0.00 0.00
6:58 am 06:58 Cloudy with Light Rain 41 5 41 5 100 100 N 7 11 29.26 991 5 8 0.04 1.02
7:10 am 07:10 Cloudy with Light Rain 41 5 41 5 100 100 N 8 13 29.26 991 5 8 0.00 0.00
7:35 am 07:35 Cloudy with Light Rain 41 5 41 5 100 100 N 8 13 29.26 991 5 8 0.00 0.00
7:51 am 07:51 Cloudy with Light Rain 41 5 41 5 100 100 N 10 17 29.26 991 5 8 0.00 0.00
7:57 am 07:57 Cloudy with Rain 41 5 41 5 100 100 N 8 13 29.26 991 5 8 0.00 0.00
7:58 am 07:58 Cloudy with Rain 41 5 41 5 100 100 N 8 13 29.24 990 5 8 0.03 0.76
8:13 am 08:13 Mostly Cloudy with Heavy Rain 41 5 41 5 100 100 N 8 13 29.26 991 5 8 0.00 0.00
8:44 am 08:44 Cloudy with Rain 41 5 41 5 100 100 N 10 17 29.23 990 5 8 0.00 0.00
8:58 am 08:58 Cloudy with Heavy Rain 41 5.1 41 4.9 99 99 NNW 8 13 29.23 990 5 8 0.12 3.05
9:07 am 09:07 Cloudy with Heavy Rain 41 5 41 5 100 100 NNW 8 13 29.23 990 5 8 0.00 0.00
9:36 am 09:36 Cloudy with Heavy Rain 39 4 39 4 100 100 N 15 24 29.23 990 5 8 0.00 0.00
9:58 am 09:58 Cloudy with Heavy Rain 40 4.3 40 4.2 99 99 N 16 26 29.23 990 5 8 0.14 3.56
10:58 am 10:58 Cloudy with Heavy Rain 40 4.3 39 3.9 97 97 NNW 21 33 29.23 990 6 10 0.14 3.56
11:34 am 11:34 Cloudy with Heavy Rain 39 4 37 3 93 93 NW 18 30 29.26 991 6 10 0.00 0.00
11:46 am 11:46 Cloudy with Heavy Rain 39 4 37 3 93 93 NW 21 33 29.23 990 6 10 0.00 0.00
11:58 am 11:58 Cloudy with Heavy Rain 38 3.5 37 2.7 95 95 NNW 20 31 29.24 990 6 10 0.16 4.06
12:58 pm 12:58 Cloudy with Light Rain 37 2.8 35 1.9 94 94 NW 16 26 29.25 990 6 10 0.08 2.03
1:34 pm 13:34 Cloudy with Light Rain/Snow 36 2 34 1 93 93 NNW 21 33 29.26 991 6 10 0.00 0.00
1:58 pm 13:58 Cloudy with Rain 36 2.2 35 1.5 95 95 NNW 16 26 29.27 991 6 10 0.10 2.54
2:58 pm 14:58 Cloudy with Light Rain 37 2.7 36 2 95 95 NW 13 20 29.35 994 10 16 0.02 0.51
3:58 pm 15:58 Cloudy 38 3.6 37 2.7 94 94 NW 14 22 29.38 995 10 16 0.00 0.03
4:58 pm 16:58 Sunny 38 3.2 35 1.4 88 88 WNW 10 17 29.41 996 10 16 0.00 0.00
5:58 pm 17:58 Clear 35 1.4 31 -0.8 85 85 WNW 7 11 29.48 998 10 16 0.00 0.00
6:58 pm 18:58 Clear 34 1.2 30 -1.3 84 84 W 8 13 29.51 999 10 16 0.00 0.00
7:58 pm 19:58 Clear 33 0.3 29 -1.6 87 87 SW 6 9 29.57 1001 10 16 0.00 0.00
8:58 pm 20:58 Clear 33 0.7 29 -1.9 83 83 WSW 8 13 29.60 1002 10 16 0.00 0.00
9:58 pm 21:58 Clear 33 0.3 28 -2.3 83 83 W 6 9 29.65 1004 10 16 0.00 0.00
10:58 pm 22:58 Clear 28 -2.4 25 -3.8 90 90 Calm 29.68 1005 10 16 0.00 0.00
11:58 pm 23:58 Clear 25 -3.7 25 -4.1 97 97 Calm 29.69 1005 10 16 0.00 0.00

Powered by AerisWeather